Other Public Products
Issued by NWS Charleston, SC

Current Version | Previous Version | Graphics & Text | Print | Product List | Glossary On
Versions: 1 2 3 4 5 6 7 8 9 10 11 12 13 14 15 16 17 18 19 20 21 22 23 24 25 26 27 28 29 30 31 32 33 34 35 36 37 38 39 40 41 42 43 44 45 46 47 48 49 50
000 FPUS82 KCHS 231212 OPUCHS TEST...KCHS/KSAV Gateway Observations...TEST National Weather Service Charleston SC 800 AM EDT MON APR 23 2018 NOTE: "fair" indicates few or no clouds below 12,000 feet with no significant weather and/or obstructions to visibility. SCZ050-WAZ558-NCZ071-TXZ119-213-PAZ071-DCZ001-FLZ074-172-MI076- NYZ176-178-MAZ016-IL014-TNZ027-NJZ106-GAZ044-MD014-231300- ...Gateway Observations for Charleston International... CITY SKY/WX TMP DP RH WIND PRES REMARKS Chas Airport PTSUNNY 65 61 87 E15G24 30.12F 6HR MIN TEMP: 64; 6HR MAX TEMP: 67; 6HR PCP: 0.05; Seattle CLEAR 43 36 76 NE6 30.34S 6HR MIN TEMP: 42; 6HR MAX TEMP: 51; Charlotte LGT RAIN 56 48 74 NE9 30.25R 6HR MIN TEMP: 56; 6HR MAX TEMP: 60; 6HR PCP: TRACE; Dallas DFW MOCLDY 52 49 89 NW15 30.07R 6HR MIN TEMP: 51; 6HR MAX TEMP: 58; Dallas Love CLOUDY 53 48 83 N15 30.07R 6HR MIN TEMP: 52; 6HR MAX TEMP: 58; Philladelphia FAIR 48 40 73 CALM 30.46R 6HR MIN TEMP: 43; 6HR MAX TEMP: 48; Wash National PTSUNNY 53 41 63 S3 30.44R 6HR MIN TEMP: 50; 6HR MAX TEMP: 54; Baltimore PTSUNNY 53 43 68 E5 30.43R 6HR MIN TEMP: 46; 6HR MAX TEMP: 53; Miami RAIN 76 75 97 SE9 30.05R FOG 6HR MIN TEMP: 73; 6HR MAX TEMP: 78; 6HR PCP: 0.30; Detroit PTSUNNY 46 29 51 NE8 30.26F 6HR MIN TEMP: 42; 6HR MAX TEMP: 47; Newark FAIR 50 31 48 N9 30.46R 6HR MIN TEMP: 40; 6HR MAX TEMP: 50; Laguardia FAIR 49 30 48 NE8 30.47R 6HR MIN TEMP: 45; 6HR MAX TEMP: 50; J F K FAIR 49 34 56 NE9 30.47R 6HR MIN TEMP: 39; 6HR MAX TEMP: 49; Boston Logan FAIR 49 21 33 NW5 30.49R 6HR MIN TEMP: 43; 6HR MAX TEMP: 49; Ft. Lauderdale LGT RAIN 77 76 96 SE12 30.04R 6HR MIN TEMP: 77; 6HR MAX TEMP: 79; 6HR PCP: 0.06; Chicago O`Hare CLOUDY 45 28 51 NE10 30.21S 6HR MIN TEMP: 43; 6HR MAX TEMP: 47; Chicago Midway CLOUDY 47 29 49 NE7 30.21S 6HR MIN TEMP: 43; 6HR MAX TEMP: 47; Houston Bush FAIR 54 49 83 W8 30.06R 6HR MIN TEMP: 51; 6HR MAX TEMP: 59; Houston Hobby FAIR 55 52 89 W8 30.06R 6HR MIN TEMP: 53; 6HR MAX TEMP: 62; Nashville CLOUDY 59 57 93 SE9 29.92R 6HR MIN TEMP: 58; 6HR MAX TEMP: 59; 6HR PCP: 0.10; Atlanta CLOUDY 59 59 100 E7 29.99R FOG 6HR MIN TEMP: 58; 6HR MAX TEMP: 59; 6HR PCP: 0.95; $$ GAZ044-118-TXZ119-213-NCZ071-DCZ001-MDZ014-506-PAZ021-071-NJZ106- NYZ176-178-MAZ106-OHZ011-021-055-MIZ076-KYZ091-ILZ014-INZ047- MNZ060-ONZ431-231300- ...Gateway Observations for Savannah International... CITY SKY/WX TMP DP RH WIND PRES REMARKS Savannah Arpt HVY RAIN 64 63 96 E15G24 30.05F FOG 6HR MIN TEMP: 64; 6HR MAX TEMP: 66; 6HR PCP: 0.41; Atlanta CLOUDY 59 59 100 E7 29.99R FOG 6HR MIN TEMP: 58; 6HR MAX TEMP: 59; 6HR PCP: 0.95; Charlotte LGT RAIN 56 48 74 NE9 30.25R 6HR MIN TEMP: 56; 6HR MAX TEMP: 60; 6HR PCP: TRACE; Dallas DFW MOCLDY 52 49 89 NW15 30.07R 6HR MIN TEMP: 51; 6HR MAX TEMP: 58; Houston Bush FAIR 54 49 83 W8 30.06R 6HR MIN TEMP: 51; 6HR MAX TEMP: 59; Wash National PTSUNNY 53 41 63 S3 30.44R 6HR MIN TEMP: 50; 6HR MAX TEMP: 54; Wash Dulles PTSUNNY 47 41 80 CALM 30.42R 6HR MIN TEMP: 42; 6HR MAX TEMP: 51; Baltimore PTSUNNY 53 43 68 E5 30.43R 6HR MIN TEMP: 46; 6HR MAX TEMP: 53; Philadelphia FAIR 48 40 73 CALM 30.46R 6HR MIN TEMP: 43; 6HR MAX TEMP: 48; Newark FAIR 50 31 48 N9 30.46R 6HR MIN TEMP: 40; 6HR MAX TEMP: 50; Laguardia FAIR 49 30 48 NE8 30.47R 6HR MIN TEMP: 45; 6HR MAX TEMP: 50; J F K FAIR 49 34 56 NE9 30.47R 6HR MIN TEMP: 39; 6HR MAX TEMP: 49; Boston FAIR 49 21 33 NW5 30.49R 6HR MIN TEMP: 43; 6HR MAX TEMP: 49; Pittsburg PTSUNNY 53 39 59 E7 30.29R 6HR MIN TEMP: 49; 6HR MAX TEMP: 53; Akron FAIR 52 37 56 SE9 30.28R 6HR MIN TEMP: 48; 6HR MAX TEMP: 52; Cleveland PTSUNNY 55 37 50 SE13 30.28R 6HR MIN TEMP: 48; 6HR MAX TEMP: 55; Cincinnati CLOUDY 55 37 50 E6 30.10R 6HR MIN TEMP: 52; 6HR MAX TEMP: 57; Columbus FAIR 51 38 60 E8 30.18S Detroit PTSUNNY 46 29 51 NE8 30.26F 6HR MIN TEMP: 42; 6HR MAX TEMP: 47; Chicago O`Hare CLOUDY 45 28 51 NE10 30.21S 6HR MIN TEMP: 43; 6HR MAX TEMP: 47; Minneapolis MOCLDY 43 37 79 E3 30.25S 6HR MIN TEMP: 42; 6HR MAX TEMP: 49; Indianapolis CLOUDY 51 32 48 NE7 30.11R 6HR MIN TEMP: 49; 6HR MAX TEMP: 52; Toronto Canada MOSUNNY 45 27 49 N3 30.40R $$

USA.gov is the U.S. government's official web portal to all federal, state and local government web resources and services.